Vorticity
5 5 4 3 3 3 4 5 6 5 5 8 9 7 6 7 8 9 9 7 6 8 9 8 6 7 6 5 5 5 5 3 2 4 5 4 4 6 5 4 5 4 4 6 6 5 6 4 4 4 3 2 2 3 3 1 1 1 0 4 6 3 4 7 9 14 13 7 6 9 8 11 18 19 14 13 12 11 15 14 6 7 19 14 -3 3 18
4 4 4 3 4 4 5 5 5 6 8 10 8 3 4 8 8 8 9 9 9 10 8 6 7 7 7 5 3 3 4 5 3 2 4 5 4 5 5 4 4 4 3 5 5 5 6 5 5 5 2 3 3 3 3 1 2 2 1 4 4 1 5 10 11 13 13 12 11 8 9 13 16 19 15 11 12 8 9 14 6 3 21 26 5 -2 12
4 4 3 4 5 5 5 5 6 9 12 10 5 5 7 8 7 8 8 8 9 8 6 7 8 6 6 7 5 3 2 4 6 3 2 5 5 4 5 3 3 3 3 4 4 4 5 5 5 4 2 3 4 3 3 2 2 4 4 5 1 -4 3 11 12 13 13 13 11 5 5 10 12 17 18 14 13 10 7 11 5 -5 7 32 25 -1 2
3 4 4 4 5 5 6 7 9 10 10 7 5 7 8 7 7 7 7 8 7 6 6 7 7 7 6 6 5 5 4 3 6 6 2 4 5 4 4 4 3 3 3 4 3 2 3 4 4 5 4 3 3 3 3 2 3 5 5 5 1 -6 -1 10 13 12 12 11 8 4 4 8 9 13 18 18 14 14 13 10 6 -3 -4 18 34 13 0
5 4 5 4 4 6 7 8 10 9 7 6 6 7 6 5 6 6 5 7 6 6 7 7 7 7 5 5 5 5 6 4 4 7 4 3 5 4 4 4 4 4 3 4 3 2 3 4 4 4 4 3 4 3 3 3 4 5 5 5 4 -3 -5 4 11 10 10 13 10 6 6 8 9 11 15 15 12 14 19 13 7 6 -4 -2 18 19 8
4 3 4 5 5 5 7 8 9 7 4 6 6 6 6 5 5 5 5 6 6 6 8 7 7 7 5 5 6 4 7 6 4 6 6 4 5 5 4 4 4 5 4 3 3 1 2 3 2 1 1 2 4 2 2 3 3 5 7 5 4 2 -4 -2 6 8 9 13 11 5 6 9 11 12 13 12 9 9 17 16 9 11 11 2 6 16 17
4 4 4 5 5 5 7 9 8 4 3 6 7 6 6 5 4 5 5 5 6 6 7 6 6 7 6 6 7 5 7 7 5 5 6 4 5 5 4 4 4 5 5 4 3 1 1 1 0 1 1 1 3 3 3 5 6 5 6 5 4 3 0 -2 2 6 7 12 13 6 5 10 12 13 11 10 10 10 15 19 10 8 19 18 10 14 21
6 6 6 6 6 6 8 8 7 4 4 5 6 6 6 5 4 4 4 5 6 5 7 7 6 7 6 6 7 7 6 7 6 6 6 5 5 5 4 4 3 4 6 5 4 4 4 3 3 3 4 3 3 4 4 6 7 5 4 6 4 2 2 0 1 4 4 9 13 8 6 9 9 11 11 9 11 13 16 17 8 -1 8 17 15 15 20
8 8 7 7 7 7 8 8 6 5 4 4 4 4 5 5 5 4 4 5 6 5 7 7 6 7 7 6 8 8 6 7 7 6 6 6 5 5 5 4 3 4 5 5 5 5 5 5 5 4 4 4 4 6 6 5 5 4 2 4 4 3 4 1 1 4 3 6 11 8 5 7 7 10 14 13 14 15 17 17 10 3 2 6 12 15 16
10 10 8 8 8 8 8 9 7 4 3 3 3 3 4 4 4 4 4 4 5 6 6 7 6 6 7 6 7 8 8 8 7 6 6 6 6 6 5 4 3 4 4 4 4 5 5 4 5 5 5 6 5 6 7 6 4 3 3 3 4 4 3 3 3 3 2 6 11 5 3 8 13 14 15 15 12 13 17 16 10 13 14 6 9 15 13
12 12 11 10 10 9 8 9 7 4 3 2 3 4 5 5 5 4 4 4 6 6 5 5 6 6 7 7 7 8 9 9 8 7 6 6 6 7 6 4 4 3 4 4 4 5 5 4 5 6 5 5 6 6 5 5 5 4 4 5 5 4 3 3 4 3 4 6 6 5 9 13 13 14 15 14 9 6 16 19 6 7 16 11 10 16 14
12 12 11 10 10 9 9 9 7 5 4 2 2 3 4 5 6 5 4 4 5 7 6 4 5 6 8 8 7 8 9 9 8 7 7 6 6 7 7 5 4 4 3 4 4 4 4 4 5 7 5 3 5 6 4 5 5 5 6 5 4 4 3 2 3 3 3 4 7 12 15 9 6 11 13 14 12 3 9 20 12 4 8 7 9 16 15
9 11 11 11 11 9 9 9 7 6 5 3 4 5 4 5 5 5 6 5 4 6 6 5 4 5 8 8 7 8 9 10 9 8 7 7 6 7 8 5 4 5 3 3 5 4 4 5 6 5 3 2 4 5 4 5 5 5 6 6 4 5 4 2 4 3 2 5 9 9 7 3 5 12 11 13 19 10 0 6 11 8 6 5 9 17 17
5 7 8 8 9 9 9 9 8 8 7 5 6 6 5 6 6 5 5 6 5 5 5 5 5 5 7 9 7 7 10 10 10 8 7 7 7 7 8 6 4 5 4 3 4 4 4 4 4 3 2 2 4 5 5 5 5 4 5 6 5 5 4 3 5 4 3 6 4 1 6 11 12 14 14 12 17 17 9 7 9 11 11 10 11 15 17
5 6 6 7 8 8 8 8 9 8 8 7 8 7 6 7 7 6 5 5 6 5 5 5 5 5 7 9 8 8 10 10 10 9 7 7 7 7 8 7 5 5 4 3 3 4 3 2 2 2 2 3 5 6 6 6 5 4 5 6 5 5 5 4 5 4 4 6 5 3 10 15 13 14 17 12 6 8 15 18 14 10 12 14 13 13 16
7 6 6 6 6 7 7 8 8 8 8 8 9 9 7 6 6 7 6 5 6 5 4 4 5 5 7 9 8 8 10 11 10 9 8 6 7 8 8 6 6 5 3 3 3 3 3 2 1 3 3 3 5 6 6 5 4 3 5 5 5 5 4 2 4 5 4 6 9 6 5 9 12 13 15 16 10 3 3 9 14 13 9 11 14 13 15
8 7 7 6 6 7 7 7 7 7 8 9 9 9 9 7 6 7 6 5 5 5 4 4 5 5 7 8 8 8 10 11 10 9 8 7 7 7 8 7 6 5 3 3 3 3 2 1 1 3 3 2 4 6 6 6 5 4 5 6 5 5 4 3 3 2 1 4 7 8 7 9 10 9 8 12 15 11 4 0 5 12 10 9 13 13 15
9 8 7 7 6 6 6 7 8 8 8 9 9 9 9 8 6 6 7 5 5 5 4 4 4 5 7 8 8 8 10 11 10 9 8 7 7 7 7 7 7 5 4 3 3 3 2 0 0 3 4 2 5 7 6 6 5 4 5 6 5 5 4 3 2 1 2 4 3 4 11 12 10 8 5 4 8 16 18 8 0 5 10 10 12 12 14
10 10 9 7 7 6 7 8 8 8 9 10 10 9 9 9 7 7 7 5 5 5 4 3 4 5 6 8 8 9 11 11 10 10 8 7 7 7 7 7 7 6 4 3 3 2 1 0 1 4 3 3 6 7 5 5 5 4 5 6 6 7 5 3 3 2 2 3 1 5 12 12 9 8 7 7 9 12 15 14 7 5 7 10 13 12 11
12 11 10 9 7 6 6 6 7 8 8 10 11 9 9 10 9 7 7 5 5 5 3 2 4 4 5 8 8 9 12 11 10 10 8 7 7 7 8 8 7 6 4 3 3 2 1 1 2 3 3 4 7 7 5 5 4 3 5 5 5 7 5 3 4 3 2 5 8 9 10 8 8 12 13 13 12 7 5 10 12 8 5 7 12 13 11
15 13 10 9 8 6 6 5 5 6 6 7 9 9 10 11 10 8 8 5 5 6 4 2 4 4 4 7 8 10 12 11 10 10 8 6 7 8 8 8 7 6 4 3 3 2 2 3 3 4 4 5 7 7 5 5 4 3 4 5 5 7 5 4 5 5 5 10 10 6 6 9 10 12 13 12 9 6 6 7 8 9 8 6 8 11 12
18 17 14 11 8 7 7 6 5 5 5 5 7 9 10 12 11 9 7 5 5 6 4 2 2 3 4 6 8 10 12 11 10 10 8 6 7 8 8 9 8 6 4 3 3 3 3 4 3 4 4 5 6 6 4 5 5 3 4 4 5 6 5 3 4 3 2 5 7 7 9 11 9 8 9 9 8 8 9 6 5 8 10 8 8 10 12
15 19 18 15 12 9 8 8 7 6 5 4 5 7 8 10 11 9 7 6 5 6 5 2 2 2 3 5 7 10 12 11 10 10 8 6 7 8 8 9 8 7 4 3 3 4 5 4 3 3 4 4 6 5 4 5 5 4 4 4 3 5 5 3 2 2 -0 -0 4 8 8 7 8 8 7 7 8 8 9 9 7 6 7 9 9 9 11
11 17 19 18 16 13 9 8 8 7 6 5 4 5 6 7 9 10 9 7 7 6 5 3 1 1 3 4 7 11 12 10 10 10 7 6 7 7 8 9 9 7 5 4 4 5 5 4 3 3 3 5 6 6 4 4 4 4 4 4 3 4 5 3 2 2 2 0 1 5 6 7 9 10 7 7 9 9 9 10 9 7 7 8 7 7 11
10 18 19 16 16 16 14 11 9 7 7 7 5 5 5 6 9 12 11 8 7 6 5 3 1 1 3 4 6 11 11 9 10 10 7 6 8 7 8 9 9 7 5 4 5 5 5 3 3 3 4 5 6 6 5 5 4 4 4 4 4 3 3 3 2 1 1 1 0 2 6 8 8 8 7 7 7 9 11 11 9 9 9 10 9 6 7
7 18 21 15 11 14 15 15 12 9 8 8 6 5 5 5 7 10 10 8 7 7 7 4 1 0 2 3 6 10 10 8 10 9 7 7 8 7 8 10 8 6 6 5 5 5 4 3 3 4 4 5 6 6 6 5 4 4 4 4 3 3 3 3 3 2 2 1 0 1 4 6 6 6 7 7 7 10 13 10 7 7 8 10 12 10 7
3 17 25 18 9 10 14 16 15 12 8 7 7 6 5 5 6 8 10 10 9 8 7 5 1 1 2 2 5 9 9 7 9 9 7 8 9 7 8 10 8 5 6 5 5 5 4 2 3 3 4 6 6 6 6 5 4 4 4 4 3 3 3 3 3 4 3 2 1 1 3 6 6 6 7 10 10 10 10 9 9 9 7 7 10 11 10
-0 13 25 20 11 13 21 22 18 14 11 8 7 7 6 4 5 8 11 11 9 7 7 6 2 1 2 1 4 8 8 6 8 8 6 8 9 8 9 9 7 5 6 5 5 5 3 2 2 3 5 6 7 6 6 6 5 4 3 4 4 3 3 3 3 4 4 2 1 2 3 4 6 6 8 10 10 8 8 9 10 10 8 6 7 8 9
-1 10 23 20 10 14 29 33 24 16 12 10 8 7 6 5 5 7 10 11 10 9 8 6 3 2 1 1 3 7 7 6 8 7 6 8 9 8 9 9 6 5 6 6 5 5 4 2 2 4 5 6 6 7 7 6 5 5 4 4 4 3 3 3 4 5 5 2 1 2 2 4 6 6 6 7 9 9 8 10 11 11 8 7 8 7 7
-0 7 21 21 9 11 29 38 29 18 13 11 9 7 6 6 6 7 9 10 10 9 9 7 5 2 2 1 3 6 5 6 8 7 6 8 8 8 9 9 6 6 7 6 5 5 4 3 3 4 5 6 6 6 7 7 6 5 5 4 4 4 4 4 4 5 5 3 1 1 2 3 4 5 4 6 9 11 10 10 10 10 8 8 9 8 7
-0 6 21 23 10 8 23 34 31 21 14 11 10 9 7 6 6 7 9 11 11 11 11 9 5 3 2 2 4 5 4 5 7 6 5 7 8 7 9 8 6 7 7 5 5 6 4 3 4 5 5 6 7 6 6 7 7 6 6 5 4 4 5 5 4 5 5 3 1 1 2 2 2 3 5 6 9 12 12 9 7 8 10 10 8 7 6
1 7 21 24 12 6 17 27 28 23 17 13 11 9 7 6 6 7 9 11 11 12 11 9 5 4 3 2 4 5 4 5 6 5 5 7 7 7 8 7 6 7 7 5 6 6 4 3 4 5 4 5 7 7 6 7 7 6 6 6 5 5 6 6 5 6 6 3 1 0 1 1 1 3 5 7 9 11 10 8 7 8 11 11 9 8 8
2 9 23 27 13 5 14 22 23 21 17 13 10 10 8 7 7 6 8 10 11 13 13 9 7 5 3 2 4 5 4 5 5 4 4 7 7 7 7 6 7 7 6 6 6 5 4 5 5 5 5 6 7 8 7 7 8 7 6 6 6 6 7 6 5 6 6 4 1 -0 0 1 1 3 6 7 8 8 8 8 8 8 9 11 10 9 9
7 16 29 29 13 3 11 20 20 19 17 13 11 10 9 7 6 6 7 9 12 14 13 10 7 6 4 3 4 4 4 5 5 4 5 6 6 7 6 6 7 7 5 6 7 5 4 6 5 4 5 6 6 7 7 7 8 7 6 5 6 7 7 7 6 6 7 5 2 -0 -0 0 1 4 5 5 5 6 8 9 9 9 8 10 10 9 9
18 25 29 26 14 5 10 18 18 16 15 13 11 10 8 7 6 6 7 9 12 13 13 10 8 6 4 4 5 5 5 5 4 4 6 6 6 7 6 5 7 7 5 6 7 5 5 6 6 5 5 6 6 7 7 7 8 7 6 6 6 7 8 7 6 6 7 6 3 0 0 1 2 2 3 3 3 6 8 8 9 10 9 9 10 10 9
25 23 20 20 16 10 10 15 17 14 11 9 8 8 7 7 7 6 7 9 12 13 13 11 9 6 5 4 5 5 5 5 5 5 6 6 6 6 6 6 7 6 6 6 7 5 5 6 5 5 5 5 5 6 7 8 8 7 5 6 6 7 8 8 6 6 7 6 4 2 1 1 1 1 2 2 3 6 8 9 10 11 9 7 9 10 8
21 17 16 19 19 14 11 14 15 14 11 9 7 7 7 6 7 7 8 10 13 13 12 10 9 7 6 5 5 6 5 5 5 5 6 7 6 5 5 7 6 5 6 7 6 5 6 7 6 5 5 4 5 5 6 7 8 7 6 6 6 6 7 7 6 6 7 6 4 2 1 1 1 1 1 3 3 5 7 8 9 10 9 8 10 11 9
17 16 17 20 20 17 14 13 12 12 12 11 9 8 8 8 8 8 9 11 12 13 12 10 8 7 7 6 5 6 5 4 6 6 5 6 6 6 6 6 6 6 6 6 5 6 7 7 5 5 4 4 4 4 4 6 7 7 6 6 6 6 7 7 6 6 7 7 5 3 1 1 1 1 2 2 3 4 6 7 9 11 10 9 10 11 10
17 16 16 17 19 19 16 14 12 11 11 12 12 11 10 9 9 9 10 12 12 12 12 11 9 8 7 6 6 6 5 5 6 6 6 6 6 6 5 5 6 6 7 6 5 7 7 6 5 4 4 4 3 3 3 5 6 7 7 6 6 6 7 8 7 5 6 7 6 3 2 1 1 1 2 2 2 4 5 6 9 10 10 9 10 11 11
17 15 13 13 16 18 15 14 12 10 9 11 12 11 11 10 10 9 10 10 11 11 10 9 8 8 7 7 7 7 6 6 6 6 6 6 6 6 6 6 6 6 6 6 6 6 7 6 5 4 4 4 3 2 2 4 5 6 7 7 6 7 7 8 7 5 5 7 7 4 2 2 1 1 2 2 2 3 4 5 7 9 10 11 10 9 9
16 16 15 14 14 15 14 13 12 10 9 10 11 11 12 11 10 9 10 10 11 12 10 9 9 9 8 7 7 7 6 6 7 7 6 6 6 7 7 6 5 6 6 6 5 6 6 5 4 4 4 4 3 2 2 3 4 6 7 6 6 7 7 8 8 5 4 6 8 5 3 2 1 1 2 2 2 3 4 4 6 9 11 11 10 9 9
15 17 18 16 15 14 14 13 13 12 11 10 10 11 12 12 12 12 11 11 11 11 10 10 9 8 7 7 8 7 7 7 7 7 6 6 6 7 6 6 6 7 7 6 6 6 6 5 4 5 5 5 4 4 3 3 4 5 6 7 6 6 7 8 8 6 5 6 8 6 4 3 2 1 1 2 2 2 4 5 5 7 10 11 11 10 9
16 17 18 18 17 16 15 15 15 13 11 11 11 11 12 13 13 13 13 13 12 11 11 11 9 8 8 9 8 7 8 7 6 6 6 6 6 6 7 7 7 7 7 6 6 7 6 5 5 6 5 4 5 5 4 4 4 5 6 7 7 6 7 8 9 7 5 6 8 7 5 3 3 2 1 2 2 2 4 4 3 5 9 12 11 9 9
14 16 16 17 18 17 16 16 16 14 12 12 13 12 12 13 14 13 14 14 13 12 12 10 9 9 9 9 8 7 7 7 6 6 6 6 7 7 7 7 7 7 7 7 6 6 6 6 6 6 6 5 6 6 5 4 4 5 6 7 7 7 7 8 9 8 6 5 7 8 6 3 3 2 1 1 2 2 3 4 3 3 8 13 12 9 9
13 14 14 15 17 17 16 16 16 15 14 15 15 14 14 14 14 14 14 14 14 13 13 11 10 10 9 9 8 8 7 6 6 7 7 7 8 8 8 7 7 7 7 7 5 5 6 7 7 7 6 5 6 6 6 5 5 5 6 7 8 7 7 8 9 8 7 6 6 7 6 4 3 2 1 1 2 2 3 3 3 3 6 11 13 10 9
11 12 11 13 16 17 15 15 16 16 15 16 16 16 16 15 14 13 13 13 12 13 12 11 10 9 8 8 8 7 7 7 7 8 8 8 9 9 8 7 7 7 6 6 6 6 7 8 8 7 7 6 6 7 6 5 5 6 7 8 8 7 7 8 9 8 8 7 6 7 7 6 3 3 2 1 1 2 3 3 2 2 4 8 12 12 10
11 10 9 10 14 16 15 15 16 16 16 16 16 16 16 16 14 14 13 12 12 11 11 10 10 9 8 9 8 8 8 8 8 8 9 9 9 8 8 7 8 7 6 6 7 7 7 9 9 8 7 6 6 7 7 5 5 6 8 8 8 8 7 8 8 8 8 8 7 6 7 7 4 3 3 2 1 2 3 3 3 3 3 5 10 14 12
10 9 8 8 10 12 12 13 14 15 16 16 15 15 15 15 15 14 14 13 13 12 11 11 11 10 10 10 9 9 9 10 10 10 11 9 9 9 8 8 8 8 7 7 8 8 8 9 10 8 7 6 6 6 7 5 5 6 8 8 8 8 7 7 8 8 8 9 8 6 6 7 5 4 3 3 1 1 2 3 3 3 2 3 8 14 13
10 9 8 8 9 9 9 10 12 13 14 14 14 14 15 15 14 15 15 14 14 14 14 13 13 12 12 12 12 11 12 13 12 11 11 10 9 9 8 7 8 8 7 7 8 8 7 9 9 7 6 7 6 6 7 6 5 6 8 7 6 7 8 7 7 8 8 9 8 6 5 6 6 4 4 3 2 1 2 3 3 2 2 2 6 11 12
8 8 8 8 8 7 7 8 9 9 10 12 13 13 14 14 13 13 14 13 13 13 13 13 13 13 13 13 13 12 12 12 11 10 10 9 9 8 8 8 8 8 7 7 7 8 8 8 8 7 6 6 6 6 6 5 5 6 8 7 5 6 7 7 6 7 8 10 9 7 6 5 6 5 4 4 3 2 2 3 2 2 2 3 5 8 12
4 5 6 7 7 6 7 7 7 7 8 9 9 10 11 12 12 12 12 12 12 11 11 11 11 11 11 11 11 10 10 10 9 9 8 8 7 7 7 7 6 7 8 8 8 8 8 8 8 7 6 6 6 6 6 5 5 5 7 7 5 4 6 6 6 6 8 10 9 8 6 5 5 5 5 4 3 2 2 2 2 2 2 3 4 7 11
3 3 4 5 5 5 5 5 5 5 5 6 6 7 9 10 10 10 11 11 11 11 10 10 10 10 11 11 10 9 9 9 8 7 7 7 6 6 7 7 7 7 8 8 8 9 9 9 8 7 6 6 6 6 5 5 5 5 6 7 6 4 5 6 6 6 8 10 10 9 7 6 5 5 5 5 4 3 2 3 3 2 2 2 3 5 9
Height
5821 5823 5825 5826 5827 5828 5829 5830 5831 5831 5832 5832 5833 5833 5833 5834 5834 5834 5834 5833 5833 5833 5833 5832 5832 5831 5831 5830 5829 5828 5826 5825 5824 5822 5821 5819 5818 5816 5814 5812 5810 5807 5805 5802 5799 5796 5793 5790 5787 5783 5779 5775 5771 5767 5762 5758 5752 5747 5741 5736 5731 5726 5720 5714 5710 5707 5702 5695 5687 5678 5669 5659 5650 5640 5631 5622 5615 5607 5599 5588 5577 5568 5561 5553 5543 5532 5525
5824 5825 5827 5828 5829 5830 5830 5831 5832 5832 5833 5833 5834 5834 5834 5835 5835 5835 5835 5835 5834 5834 5833 5833 5832 5831 5831 5830 5829 5828 5826 5825 5824 5822 5821 5819 5817 5815 5813 5811 5809 5806 5804 5801 5798 5795 5792 5789 5786 5782 5778 5774 5770 5766 5761 5756 5751 5745 5740 5734 5727 5721 5715 5708 5702 5698 5695 5689 5681 5673 5664 5654 5644 5635 5627 5619 5612 5605 5598 5591 5580 5568 5560 5551 5538 5526 5521
5826 5827 5828 5829 5830 5831 5832 5832 5833 5833 5834 5835 5835 5835 5835 5835 5836 5836 5836 5836 5835 5834 5833 5833 5833 5832 5831 5830 5829 5828 5827 5825 5824 5822 5821 5819 5817 5815 5813 5811 5808 5805 5803 5800 5797 5794 5791 5788 5785 5781 5778 5774 5769 5765 5760 5755 5749 5744 5738 5732 5725 5719 5713 5704 5694 5685 5677 5670 5663 5657 5652 5647 5640 5633 5626 5617 5608 5600 5593 5585 5575 5564 5556 5549 5536 5520 5513
5828 5829 5830 5831 5832 5832 5833 5833 5834 5834 5835 5836 5836 5836 5836 5836 5837 5837 5837 5836 5835 5834 5834 5834 5833 5832 5831 5830 5829 5828 5827 5825 5824 5822 5821 5819 5817 5815 5813 5810 5808 5805 5802 5799 5796 5794 5791 5787 5784 5780 5777 5773 5768 5764 5758 5753 5748 5742 5736 5730 5724 5718 5712 5704 5694 5685 5677 5669 5662 5655 5648 5643 5637 5631 5625 5618 5607 5596 5587 5578 5569 5559 5549 5543 5536 5518 5503
5829 5830 5831 5832 5833 5833 5834 5834 5835 5836 5836 5837 5837 5837 5837 5837 5837 5837 5837 5837 5836 5835 5834 5834 5833 5833 5832 5830 5829 5828 5827 5825 5824 5822 5820 5818 5816 5814 5812 5810 5807 5804 5802 5799 5796 5793 5790 5786 5783 5779 5775 5771 5767 5762 5757 5752 5746 5741 5735 5729 5723 5717 5711 5705 5696 5687 5681 5673 5665 5657 5649 5641 5633 5625 5618 5613 5606 5595 5585 5575 5566 5556 5542 5532 5526 5515 5499
5831 5832 5833 5833 5834 5834 5835 5836 5836 5837 5838 5838 5838 5838 5838 5838 5838 5838 5838 5837 5836 5835 5835 5835 5834 5833 5832 5830 5829 5828 5826 5825 5823 5822 5820 5818 5816 5814 5812 5809 5806 5804 5801 5798 5795 5792 5789 5785 5782 5778 5774 5770 5765 5760 5755 5750 5745 5739 5734 5727 5721 5715 5709 5705 5698 5689 5681 5674 5665 5657 5650 5641 5632 5623 5614 5607 5601 5593 5583 5573 5562 5551 5537 5522 5514 5507 5495
5832 5833 5834 5835 5835 5836 5836 5837 5838 5838 5839 5839 5839 5839 5839 5839 5838 5838 5838 5838 5837 5836 5836 5835 5834 5833 5832 5830 5829 5827 5826 5825 5823 5821 5820 5818 5815 5813 5811 5808 5805 5803 5800 5797 5794 5791 5788 5785 5781 5777 5773 5769 5765 5760 5754 5749 5744 5738 5732 5726 5720 5713 5707 5702 5697 5689 5681 5674 5666 5656 5649 5641 5632 5623 5613 5604 5598 5591 5582 5571 5558 5546 5535 5523 5510 5500 5490
5834 5835 5835 5836 5836 5837 5837 5838 5839 5839 5839 5840 5840 5840 5839 5839 5839 5839 5838 5838 5837 5836 5836 5835 5834 5833 5832 5830 5829 5827 5826 5824 5822 5821 5819 5817 5815 5812 5810 5807 5805 5802 5799 5796 5793 5790 5787 5783 5780 5776 5772 5767 5763 5758 5753 5748 5742 5736 5730 5724 5718 5711 5705 5699 5694 5689 5682 5675 5668 5657 5647 5638 5630 5623 5616 5607 5598 5589 5577 5563 5550 5537 5527 5517 5505 5493 5483
5835 5836 5837 5837 5838 5838 5839 5839 5839 5840 5840 5840 5840 5840 5840 5840 5839 5839 5839 5838 5838 5837 5836 5835 5834 5833 5832 5830 5829 5827 5825 5824 5822 5820 5818 5816 5814 5811 5809 5806 5804 5801 5798 5795 5792 5789 5785 5782 5778 5774 5770 5766 5761 5757 5752 5746 5740 5734 5728 5721 5716 5709 5703 5697 5692 5686 5679 5672 5666 5658 5649 5640 5632 5625 5617 5604 5590 5577 5566 5555 5543 5530 5517 5506 5497 5486 5473
5836 5837 5838 5838 5839 5839 5839 5840 5840 5841 5841 5841 5841 5841 5840 5840 5840 5839 5839 5839 5838 5837 5836 5835 5834 5833 5831 5830 5828 5827 5825 5823 5821 5819 5817 5815 5813 5810 5808 5805 5803 5800 5797 5794 5791 5788 5784 5780 5776 5772 5769 5764 5760 5755 5750 5744 5738 5732 5726 5719 5713 5707 5700 5694 5688 5683 5676 5669 5660 5652 5645 5638 5628 5614 5602 5592 5580 5568 5559 5551 5542 5530 5516 5503 5492 5480 5468
5837 5838 5838 5839 5839 5840 5840 5841 5841 5841 5842 5842 5842 5841 5841 5841 5840 5840 5839 5839 5838 5837 5836 5835 5834 5832 5831 5830 5828 5826 5824 5822 5820 5818 5816 5814 5812 5809 5807 5804 5802 5799 5796 5793 5790 5787 5783 5779 5775 5771 5767 5763 5758 5753 5748 5742 5736 5729 5723 5717 5711 5704 5697 5690 5683 5677 5671 5664 5657 5650 5640 5627 5614 5601 5589 5579 5570 5563 5557 5549 5539 5530 5519 5505 5491 5479 5467
5839 5839 5839 5840 5840 5840 5841 5841 5841 5842 5842 5842 5842 5842 5841 5841 5840 5840 5839 5839 5838 5837 5836 5835 5834 5832 5831 5829 5828 5826 5824 5821 5819 5817 5815 5813 5811 5808 5806 5803 5801 5798 5795 5793 5789 5786 5782 5778 5773 5769 5765 5760 5756 5751 5745 5739 5733 5727 5721 5714 5708 5702 5695 5687 5680 5672 5665 5657 5650 5641 5629 5616 5607 5599 5589 5580 5573 5567 5560 5550 5536 5522 5510 5496 5484 5475 5464
5840 5840 5840 5841 5841 5841 5841 5842 5842 5842 5842 5842 5842 5842 5842 5841 5840 5840 5839 5839 5838 5837 5836 5835 5833 5832 5830 5829 5827 5825 5823 5820 5818 5816 5814 5812 5810 5807 5805 5802 5800 5797 5794 5791 5788 5784 5781 5777 5772 5767 5763 5758 5753 5749 5743 5737 5731 5725 5719 5712 5706 5699 5692 5685 5677 5670 5663 5655 5644 5632 5623 5618 5611 5603 5593 5584 5572 5558 5545 5536 5525 5509 5495 5487 5479 5471 5460
5841 5841 5841 5841 5841 5842 5842 5842 5842 5842 5842 5842 5842 5842 5842 5841 5841 5840 5839 5839 5838 5837 5836 5834 5833 5831 5830 5828 5826 5824 5822 5819 5817 5815 5813 5811 5808 5806 5803 5801 5799 5796 5793 5790 5787 5783 5779 5775 5771 5766 5761 5757 5752 5746 5741 5735 5730 5723 5717 5710 5703 5696 5689 5682 5673 5665 5658 5652 5645 5638 5631 5620 5607 5597 5586 5574 5560 5546 5533 5522 5512 5504 5496 5489 5478 5465 5452
5842 5842 5842 5842 5842 5842 5842 5842 5842 5842 5842 5842 5842 5842 5841 5841 5840 5840 5839 5838 5837 5836 5835 5834 5833 5831 5829 5827 5825 5823 5821 5818 5816 5814 5812 5809 5807 5805 5802 5800 5798 5795 5792 5789 5786 5782 5778 5774 5770 5765 5760 5755 5750 5745 5739 5733 5727 5721 5715 5708 5701 5693 5686 5679 5670 5662 5653 5646 5639 5633 5624 5612 5599 5588 5578 5568 5560 5553 5541 5526 5517 5513 5505 5491 5473 5457 5444
5843 5843 5843 5843 5843 5842 5842 5842 5842 5842 5842 5842 5842 5841 5841 5840 5840 5839 5838 5838 5837 5836 5835 5833 5832 5830 5828 5826 5824 5822 5820 5817 5815 5813 5811 5808 5806 5804 5801 5799 5797 5794 5791 5788 5784 5781 5777 5772 5768 5764 5759 5753 5748 5742 5737 5732 5726 5720 5713 5706 5699 5691 5684 5676 5668 5659 5650 5641 5631 5621 5612 5606 5598 5587 5576 5566 5556 5547 5540 5535 5530 5519 5501 5482 5466 5452 5439
5843 5843 5843 5843 5843 5843 5843 5842 5842 5842 5842 5841 5841 5841 5840 5840 5839 5838 5838 5837 5836 5835 5834 5833 5831 5829 5827 5825 5823 5821 5819 5816 5814 5812 5809 5807 5805 5803 5800 5798 5795 5792 5789 5786 5783 5779 5775 5771 5767 5762 5757 5752 5746 5741 5736 5730 5725 5719 5713 5705 5698 5691 5683 5676 5668 5659 5649 5640 5631 5621 5610 5601 5593 5584 5575 5565 5553 5543 5537 5530 5519 5503 5487 5474 5462 5450 5438
5844 5844 5843 5843 5843 5843 5843 5843 5842 5842 5841 5841 5841 5840 5840 5839 5838 5838 5837 5836 5836 5834 5833 5832 5830 5829 5827 5824 5822 5820 5817 5815 5813 5810 5809 5806 5804 5802 5799 5797 5794 5791 5788 5785 5781 5778 5774 5770 5765 5760 5755 5750 5744 5739 5734 5728 5723 5717 5711 5704 5697 5689 5682 5674 5667 5660 5650 5640 5630 5622 5612 5601 5590 5580 5570 5563 5557 5549 5536 5517 5500 5489 5482 5473 5462 5451 5439
5844 5844 5844 5843 5843 5843 5843 5842 5842 5841 5841 5840 5840 5839 5839 5838 5837 5837 5836 5835 5834 5833 5832 5831 5829 5828 5826 5823 5821 5819 5816 5814 5812 5810 5808 5805 5803 5800 5798 5795 5792 5789 5786 5783 5779 5776 5772 5768 5763 5759 5754 5748 5743 5737 5732 5726 5721 5714 5708 5701 5694 5686 5678 5671 5664 5657 5649 5640 5632 5624 5614 5603 5592 5583 5573 5563 5552 5540 5526 5513 5501 5492 5483 5474 5463 5452 5440
5844 5844 5844 5843 5843 5843 5842 5842 5841 5841 5840 5840 5839 5838 5838 5837 5837 5836 5835 5834 5833 5832 5831 5830 5828 5827 5825 5823 5820 5818 5815 5813 5811 5809 5806 5804 5802 5799 5796 5794 5791 5788 5785 5781 5778 5774 5770 5766 5762 5757 5752 5747 5741 5736 5730 5725 5719 5712 5705 5698 5690 5682 5674 5667 5660 5653 5646 5637 5626 5615 5606 5597 5588 5579 5568 5556 5542 5531 5523 5516 5507 5496 5485 5475 5463 5450 5438
5844 5844 5843 5843 5842 5842 5842 5841 5841 5840 5840 5839 5838 5838 5837 5836 5835 5835 5834 5833 5832 5831 5830 5829 5827 5825 5823 5821 5819 5817 5814 5812 5810 5807 5805 5803 5800 5798 5795 5792 5789 5786 5783 5779 5776 5772 5769 5764 5760 5755 5751 5745 5740 5734 5728 5723 5717 5711 5704 5696 5689 5681 5672 5663 5655 5647 5638 5629 5619 5610 5602 5594 5583 5572 5559 5548 5539 5532 5524 5516 5507 5496 5483 5471 5460 5450 5438
5844 5843 5843 5842 5842 5841 5841 5840 5840 5839 5839 5838 5837 5837 5836 5835 5834 5833 5832 5832 5831 5830 5829 5828 5826 5824 5822 5820 5818 5815 5813 5811 5808 5806 5804 5801 5799 5796 5793 5790 5787 5784 5781 5778 5774 5771 5767 5763 5758 5754 5749 5744 5738 5733 5727 5721 5715 5708 5702 5695 5687 5679 5671 5662 5653 5643 5634 5625 5617 5607 5598 5588 5578 5569 5560 5552 5544 5535 5525 5516 5506 5495 5482 5470 5459 5448 5437
5844 5843 5842 5841 5841 5840 5840 5839 5839 5838 5838 5837 5836 5835 5835 5834 5833 5832 5831 5830 5829 5828 5827 5826 5825 5823 5821 5819 5816 5814 5812 5809 5807 5805 5802 5800 5797 5794 5791 5789 5786 5783 5780 5776 5773 5769 5765 5761 5757 5752 5748 5743 5737 5732 5726 5720 5713 5707 5701 5694 5687 5679 5671 5663 5655 5647 5639 5630 5619 5608 5597 5588 5579 5570 5562 5553 5544 5534 5524 5514 5503 5493 5484 5474 5462 5448 5435
5843 5842 5841 5840 5839 5839 5838 5838 5837 5837 5836 5835 5835 5834 5833 5832 5832 5831 5830 5829 5828 5827 5826 5825 5823 5822 5820 5817 5815 5813 5810 5808 5806 5803 5801 5798 5795 5793 5790 5787 5784 5781 5778 5775 5771 5768 5764 5760 5755 5751 5746 5741 5736 5730 5724 5718 5712 5706 5700 5694 5687 5680 5673 5665 5656 5648 5640 5633 5625 5617 5607 5597 5588 5579 5568 5557 5545 5534 5523 5513 5502 5493 5483 5473 5462 5450 5438
5842 5841 5840 5839 5838 5837 5837 5836 5836 5835 5834 5834 5833 5832 5832 5831 5830 5829 5828 5827 5826 5825 5824 5823 5822 5820 5818 5816 5814 5811 5809 5807 5804 5802 5799 5797 5794 5791 5788 5786 5782 5779 5776 5773 5770 5766 5762 5758 5754 5749 5744 5739 5734 5728 5723 5717 5710 5704 5698 5692 5685 5678 5671 5664 5656 5647 5638 5631 5624 5615 5606 5596 5587 5578 5568 5558 5548 5538 5528 5517 5507 5496 5484 5472 5461 5451 5441
5842 5840 5839 5838 5837 5836 5835 5834 5833 5833 5832 5832 5831 5831 5830 5829 5828 5827 5826 5825 5824 5823 5822 5821 5820 5819 5817 5814 5812 5810 5808 5805 5803 5800 5798 5795 5792 5790 5787 5784 5781 5778 5775 5771 5768 5764 5760 5756 5752 5747 5742 5737 5732 5727 5721 5715 5709 5703 5697 5690 5683 5677 5669 5663 5656 5649 5641 5633 5625 5618 5610 5602 5592 5582 5572 5562 5551 5541 5530 5520 5510 5501 5491 5480 5467 5455 5442
5841 5839 5838 5836 5835 5834 5833 5832 5831 5831 5830 5830 5829 5829 5828 5827 5827 5826 5825 5824 5823 5821 5821 5820 5818 5817 5815 5813 5811 5808 5806 5804 5801 5799 5796 5793 5791 5788 5785 5782 5779 5776 5773 5769 5766 5762 5759 5755 5750 5745 5740 5735 5730 5725 5719 5713 5707 5701 5695 5688 5681 5675 5669 5662 5656 5649 5641 5632 5624 5616 5608 5599 5590 5581 5571 5561 5550 5539 5529 5520 5511 5502 5493 5483 5473 5462 5449
5839 5838 5836 5835 5833 5832 5830 5829 5828 5828 5828 5827 5827 5827 5826 5825 5825 5824 5823 5822 5821 5820 5819 5818 5816 5815 5813 5811 5809 5807 5805 5802 5800 5797 5795 5792 5789 5786 5783 5780 5777 5774 5771 5768 5764 5761 5757 5753 5748 5743 5738 5733 5728 5723 5717 5712 5706 5699 5693 5686 5680 5674 5667 5660 5652 5645 5637 5629 5621 5613 5605 5597 5588 5579 5569 5558 5548 5539 5530 5521 5511 5501 5491 5481 5472 5461 5450
5837 5836 5834 5832 5831 5829 5827 5826 5825 5825 5825 5825 5824 5824 5824 5823 5823 5822 5821 5820 5819 5818 5817 5816 5814 5813 5811 5809 5807 5805 5803 5800 5798 5795 5793 5790 5787 5785 5781 5778 5775 5772 5769 5766 5762 5759 5755 5751 5746 5742 5737 5732 5726 5721 5715 5710 5704 5698 5691 5684 5678 5671 5665 5658 5650 5642 5634 5626 5618 5610 5603 5594 5586 5577 5567 5558 5549 5541 5532 5522 5512 5501 5491 5480 5469 5456 5446
5836 5834 5832 5830 5829 5827 5825 5823 5822 5822 5822 5822 5822 5822 5822 5821 5820 5820 5819 5818 5817 5815 5814 5813 5812 5811 5809 5807 5805 5803 5801 5799 5796 5794 5791 5788 5786 5783 5780 5777 5774 5770 5767 5764 5760 5757 5753 5749 5744 5740 5735 5730 5725 5719 5714 5708 5702 5696 5690 5683 5676 5670 5663 5656 5649 5642 5634 5626 5618 5610 5602 5593 5584 5576 5568 5560 5551 5542 5532 5521 5510 5500 5490 5480 5470 5458 5446
5834 5832 5831 5829 5827 5825 5823 5821 5820 5820 5820 5820 5820 5819 5819 5819 5818 5817 5816 5815 5814 5813 5812 5811 5810 5809 5807 5805 5803 5801 5799 5797 5795 5792 5789 5787 5784 5781 5778 5775 5772 5769 5765 5762 5758 5755 5751 5747 5742 5738 5733 5728 5723 5717 5712 5706 5700 5694 5688 5681 5675 5669 5662 5655 5648 5640 5633 5626 5619 5610 5601 5593 5585 5578 5570 5561 5551 5541 5529 5518 5508 5499 5490 5479 5468 5457 5446
5832 5830 5828 5827 5825 5824 5822 5820 5819 5818 5818 5817 5817 5817 5817 5817 5816 5815 5814 5813 5812 5811 5810 5809 5808 5806 5805 5803 5801 5799 5797 5795 5793 5790 5787 5785 5782 5779 5776 5773 5770 5767 5763 5760 5756 5753 5749 5744 5740 5736 5731 5726 5721 5716 5710 5704 5698 5692 5686 5680 5674 5667 5661 5654 5646 5639 5632 5625 5618 5611 5603 5595 5587 5579 5570 5560 5549 5538 5528 5519 5510 5500 5490 5480 5469 5458 5448
5829 5828 5826 5825 5823 5822 5820 5818 5817 5816 5816 5815 5815 5815 5815 5814 5814 5813 5812 5811 5810 5809 5808 5806 5805 5804 5802 5801 5799 5797 5795 5793 5791 5788 5785 5783 5780 5777 5774 5771 5768 5765 5762 5758 5754 5750 5747 5743 5738 5734 5729 5724 5719 5714 5708 5703 5697 5691 5685 5679 5673 5666 5659 5652 5645 5638 5630 5623 5616 5609 5602 5595 5586 5577 5567 5557 5547 5538 5530 5521 5511 5501 5491 5483 5474 5464 5454
5827 5825 5823 5822 5821 5820 5818 5817 5816 5815 5814 5814 5813 5813 5813 5812 5811 5811 5810 5808 5807 5806 5805 5804 5803 5801 5800 5798 5797 5795 5793 5791 5788 5786 5783 5780 5777 5775 5772 5769 5766 5763 5759 5756 5752 5748 5745 5741 5736 5732 5727 5722 5717 5712 5707 5701 5695 5689 5683 5677 5671 5664 5657 5651 5644 5636 5629 5622 5615 5607 5600 5592 5584 5575 5566 5557 5549 5540 5532 5523 5514 5505 5495 5485 5476 5466 5456
5824 5822 5821 5819 5818 5817 5816 5815 5814 5813 5812 5812 5811 5811 5810 5810 5809 5808 5807 5806 5805 5804 5803 5802 5800 5799 5797 5796 5794 5793 5791 5789 5786 5783 5781 5778 5775 5772 5770 5766 5764 5761 5757 5754 5750 5746 5742 5738 5734 5730 5725 5720 5715 5710 5705 5699 5693 5687 5682 5675 5669 5663 5656 5649 5643 5636 5629 5622 5615 5608 5600 5592 5583 5574 5566 5559 5551 5543 5534 5525 5515 5505 5495 5485 5475 5465 5456
5822 5820 5818 5817 5816 5815 5814 5813 5812 5811 5810 5810 5809 5809 5808 5808 5807 5806 5805 5804 5802 5801 5800 5799 5798 5796 5795 5793 5792 5790 5788 5786 5784 5781 5778 5776 5773 5770 5767 5764 5761 5758 5755 5751 5748 5744 5740 5736 5732 5728 5723 5718 5714 5708 5703 5697 5691 5686 5680 5674 5668 5662 5655 5649 5642 5635 5628 5621 5614 5606 5598 5590 5582 5575 5568 5560 5552 5543 5534 5525 5516 5506 5497 5487 5478 5469 5459
5819 5817 5816 5815 5813 5812 5812 5811 5810 5809 5808 5808 5807 5806 5806 5805 5804 5803 5802 5801 5800 5799 5798 5796 5795 5794 5792 5791 5789 5787 5786 5784 5781 5779 5776 5774 5771 5768 5765 5762 5759 5756 5753 5749 5746 5742 5738 5734 5730 5726 5721 5716 5711 5706 5701 5695 5690 5684 5678 5672 5666 5660 5653 5647 5640 5634 5627 5620 5613 5606 5598 5590 5584 5577 5569 5560 5551 5542 5533 5524 5515 5507 5498 5489 5479 5470 5460
5817 5815 5814 5812 5811 5810 5809 5808 5808 5807 5806 5805 5805 5804 5803 5803 5802 5801 5800 5799 5798 5796 5795 5794 5792 5791 5790 5788 5786 5785 5783 5781 5779 5776 5774 5771 5769 5766 5763 5760 5757 5753 5750 5747 5743 5740 5736 5732 5728 5724 5719 5714 5709 5704 5698 5693 5688 5682 5676 5670 5664 5658 5652 5645 5638 5632 5626 5620 5613 5606 5599 5592 5584 5576 5568 5559 5550 5541 5532 5524 5515 5506 5497 5488 5479 5469 5460
5814 5813 5811 5810 5809 5808 5807 5806 5805 5805 5804 5803 5802 5801 5801 5800 5799 5798 5797 5796 5795 5794 5792 5791 5790 5788 5787 5785 5784 5782 5780 5778 5776 5773 5771 5769 5766 5763 5760 5757 5754 5751 5747 5744 5741 5737 5734 5730 5726 5722 5717 5712 5706 5701 5696 5691 5685 5680 5674 5668 5662 5656 5649 5643 5637 5630 5624 5618 5611 5604 5597 5590 5582 5574 5565 5557 5548 5540 5531 5522 5514 5505 5497 5488 5479 5470 5460
5812 5811 5809 5808 5807 5806 5805 5804 5803 5802 5802 5801 5800 5799 5798 5797 5796 5796 5795 5793 5792 5791 5790 5788 5787 5786 5784 5783 5781 5779 5777 5775 5773 5771 5768 5766 5763 5760 5757 5754 5751 5748 5745 5742 5738 5735 5731 5727 5723 5718 5714 5709 5704 5699 5694 5688 5683 5677 5671 5666 5660 5653 5647 5641 5635 5629 5623 5616 5610 5602 5595 5587 5579 5572 5564 5556 5548 5539 5531 5522 5514 5506 5497 5488 5479 5470 5461
5810 5809 5807 5806 5805 5804 5803 5802 5801 5800 5799 5798 5797 5797 5796 5795 5794 5793 5792 5791 5790 5788 5787 5786 5784 5783 5782 5780 5779 5777 5775 5773 5771 5768 5766 5763 5761 5758 5754 5751 5748 5745 5742 5739 5735 5731 5728 5724 5720 5715 5711 5706 5701 5696 5691 5685 5680 5674 5669 5663 5657 5651 5645 5639 5633 5627 5621 5614 5607 5600 5593 5586 5578 5570 5563 5555 5547 5539 5530 5522 5514 5506 5497 5488 5480 5471 5461
5809 5807 5806 5804 5803 5802 5801 5800 5799 5798 5797 5796 5795 5794 5793 5792 5791 5790 5789 5788 5787 5786 5785 5783 5782 5781 5780 5778 5776 5775 5773 5771 5768 5766 5763 5761 5758 5755 5752 5749 5746 5743 5739 5736 5732 5728 5724 5721 5717 5713 5708 5703 5699 5694 5688 5683 5677 5672 5666 5660 5654 5648 5643 5637 5631 5625 5619 5612 5605 5598 5591 5584 5577 5570 5562 5554 5547 5539 5531 5522 5514 5505 5497 5488 5480 5471 5462
5807 5806 5804 5803 5801 5800 5799 5798 5797 5796 5795 5794 5793 5792 5791 5790 5789 5788 5787 5786 5785 5783 5782 5781 5780 5779 5777 5776 5774 5772 5770 5768 5766 5763 5761 5758 5756 5753 5750 5747 5744 5740 5737 5733 5729 5726 5722 5718 5713 5709 5705 5700 5696 5690 5685 5680 5675 5669 5663 5658 5652 5646 5640 5634 5628 5622 5616 5610 5603 5597 5590 5584 5577 5569 5561 5554 5546 5538 5529 5521 5513 5505 5496 5488 5480 5471 5463
5805 5804 5802 5801 5800 5799 5798 5796 5795 5794 5793 5792 5791 5790 5789 5788 5787 5786 5784 5783 5782 5781 5780 5779 5778 5776 5775 5774 5772 5770 5768 5766 5763 5761 5758 5756 5753 5750 5747 5744 5741 5738 5734 5730 5727 5723 5720 5716 5711 5707 5702 5697 5692 5687 5682 5677 5672 5666 5661 5655 5649 5643 5638 5632 5626 5620 5614 5608 5602 5595 5589 5582 5575 5568 5560 5553 5545 5537 5528 5520 5512 5504 5495 5487 5479 5471 5463
5804 5802 5801 5799 5798 5797 5796 5795 5794 5792 5791 5790 5789 5788 5787 5785 5784 5783 5782 5781 5780 5779 5778 5776 5775 5774 5772 5771 5769 5767 5765 5763 5760 5758 5755 5753 5750 5747 5744 5741 5737 5734 5731 5728 5724 5720 5717 5713 5708 5704 5699 5694 5689 5684 5679 5674 5669 5664 5658 5653 5647 5641 5635 5630 5624 5618 5612 5606 5600 5593 5586 5580 5573 5566 5559 5551 5544 5536 5528 5520 5512 5503 5495 5486 5478 5470 5462
5803 5801 5800 5798 5797 5796 5794 5793 5792 5791 5790 5788 5787 5786 5785 5783 5782 5781 5780 5779 5778 5776 5775 5774 5772 5771 5769 5768 5766 5764 5762 5760 5757 5755 5752 5750 5747 5744 5741 5737 5734 5730 5727 5724 5721 5717 5713 5709 5705 5700 5696 5691 5686 5681 5676 5671 5666 5661 5656 5650 5645 5639 5633 5627 5621 5616 5610 5604 5598 5591 5584 5577 5571 5564 5558 5550 5543 5535 5528 5520 5512 5503 5495 5487 5478 5470 5462
5802 5800 5799 5797 5796 5794 5793 5792 5791 5789 5788 5787 5785 5784 5783 5782 5780 5779 5778 5777 5775 5774 5773 5771 5770 5768 5766 5765 5763 5761 5759 5756 5754 5752 5749 5746 5744 5741 5737 5734 5731 5727 5723 5720 5717 5713 5709 5706 5702 5697 5693 5688 5683 5678 5674 5668 5663 5658 5653 5648 5642 5636 5630 5625 5619 5613 5607 5601 5595 5589 5582 5576 5569 5563 5556 5549 5542 5534 5526 5519 5511 5503 5495 5487 5479 5470 5462
5800 5799 5798 5796 5795 5793 5792 5791 5789 5788 5787 5785 5784 5783 5781 5780 5779 5777 5776 5775 5773 5772 5770 5769 5767 5766 5764 5762 5760 5758 5756 5753 5751 5748 5745 5743 5740 5737 5734 5731 5728 5724 5720 5716 5713 5710 5706 5702 5698 5694 5689 5685 5680 5675 5671 5666 5660 5655 5650 5645 5639 5634 5628 5622 5616 5611 5605 5599 5593 5587 5580 5574 5567 5561 5554 5547 5540 5532 5525 5518 5510 5502 5495 5487 5479 5470 5462
5799 5798 5796 5795 5794 5792 5791 5790 5788 5787 5785 5784 5783 5781 5780 5778 5777 5775 5774 5772 5771 5769 5768 5766 5764 5763 5761 5759 5757 5754 5752 5750 5747 5745 5742 5739 5736 5734 5730 5727 5724 5721 5717 5713 5710 5706 5703 5699 5695 5691 5686 5682 5677 5672 5668 5663 5658 5653 5647 5642 5637 5631 5625 5619 5614 5608 5602 5596 5590 5584 5578 5571 5565 5558 5552 5545 5538 5530 5523 5516 5508 5501 5494 5486 5478 5471 5463
5798 5796 5795 5794 5792 5791 5790 5788 5787 5786 5784 5783 5781 5780 5778 5777 5775 5773 5772 5770 5768 5767 5765 5763 5761 5760 5758 5756 5753 5751 5749 5747 5744 5741 5739 5736 5733 5730 5727 5724 5720 5717 5714 5710 5706 5703 5699 5695 5691 5687 5683 5678 5674 5669 5664 5660 5655 5650 5645 5639 5634 5629 5623 5617 5611 5605 5600 5594 5587 5581 5575 5569 5562 5556 5550 5543 5536 5529 5522 5514 5507 5500 5493 5486 5478 5471 5463
5796 5795 5793 5792 5790 5789 5788 5787 5785 5784 5782 5781 5779 5778 5776 5775 5773 5771 5769 5768 5766 5764 5762 5760 5758 5756 5755 5753 5750 5748 5746 5744 5741 5738 5735 5732 5729 5726 5724 5721 5717 5714 5710 5707 5703 5699 5695 5692 5688 5684 5680 5675 5671 5666 5661 5657 5652 5647 5642 5637 5631 5626 5620 5614 5608 5602 5597 5591 5585 5578 5572 5566 5560 5553 5547 5541 5534 5527 5520 5513 5506 5499 5492 5484 5477 5470 5462
5794 5793 5791 5790 5789 5787 5786 5785 5783 5782 5780 5779 5777 5776 5774 5772 5771 5769 5767 5765 5763 5761 5759 5757 5755 5753 5751 5749 5747 5744 5742 5740 5738 5735 5732 5729 5725 5723 5720 5717 5714 5711 5707 5704 5700 5696 5692 5688 5685 5681 5676 5672 5667 5663 5658 5653 5648 5643 5638 5633 5628 5623 5617 5611 5605 5600 5594 5588 5582 5576 5570 5563 5557 5551 5544 5538 5531 5525 5518 5511 5504 5497 5490 5482 5475 5468 5461